User: anonymous   Login
Location: Unspecified
(0.0000°N, 0.0000°E)
Time: 08:02:09
(UTC+01:00)
Language:

Cosmos 1536 - Orbit

View from above orbital plane
View from above orbital plane
View from above satellite
View from above satellite

Ground track
Ground track

The orbit data is extracted from the following two-line orbital elements,

1 14699U 84013A   14354.49625505  .00005994  00000-0  44260-3 0  2571
2 14699 082.5263 129.3486 0011816 275.7331 084.2547 15.03035774676324
Epoch (UTC): 20 December 2014 11:54:36
Eccentricity: 0.0011816
inclination: 82.5263°
perigee height: 549 km
apogee height: 566 km
right ascension of ascending node: 129.3486°
argument of perigee: 275.7331°
revolutions per day: 15.03035774
mean anomaly at epoch: 84.2547°
orbit number at epoch: 67632

The dashed part of the orbit path shows where the satellite is in the earth's shadow,  

DLR